Location: Ch�ze
(42.9000°N, 0.0333°W)
Time: 00:15:25
(UTC+00:00)

Lacrosse 5 - Pass Details

Date: 24 January 2021
Orbit: 715 x 724 km, 57.0° (Epoch: 22 February)

Event Time Altitude Azimuth Distance (km) Brightness Sun altitude
Rises 19:10:17 0° 302° (WNW) 3,120 6.0 -23.3°
Reaches altitude 10° 19:13:04 10° 288° (WNW) 2,197 5.3 -23.8°
Maximum altitude 19:16:58 23° 238° (WSW) 1,506 4.1 -24.5°
Drops below altitude 10° 19:20:51 10° 187° (S) 2,188 4.5 -25.2°
Sets 19:23:39 0° 173° (S) 3,105 5.1 -25.7°
